Flag for Kazakhstan Weather past 2 weeks in Qyzylorda, Kazakhstan

Now
88 °F

Sunny.


Feels Like: 84 °F
Forecast: 64 / 93 °F
Wind: 22 mph from East

Location: Kzyl-Orda

Current Time: Aug 30, 2014 at 1:08:04 PM

Latest Report: Aug 30, 2014 at 12:30 PM


Visibility: 10 mi

Pressure: 29.92 "Hg

Humidity: 10%

Dew point: 25 °F

Location of QyzylordaLocation

Historic Weather in Qyzylorda — Graph

°F

Qyzylorda temperature yesterday

Maximum temperature yesterday: 93 °F (at 2:30 PM)
Minimum temperature yesterday: 59 °F (at 7:00 AM)
Average temperature yesterday: 80 °F

Past Weeks' High & Low Weather Summary

 TemperatureHumidityPressure
High104 °F (Aug 21, 3:00 PM)77% (Aug 16, 5:00 AM)30.07 "Hg (Aug 16, 5:00 AM)
Low54 °F (Aug 17, 6:00 AM)8% (Aug 22, 4:00 PM)29.62 "Hg (Aug 24, 2:00 AM)
Average81 °F25%29.88 "Hg
* Reported Aug 15 12:00 Noon — Aug 30 12:00 Noon, Qyzylorda, Weather by CustomWeather, © 2014

Note: Actual official high and low records may vary slightly from our data, if they occured in-between our weather recording intervals... More about our weather records

Advertising

Qyzylorda weather history for previous 24 hours

 ConditionsComfort  
Time TempWeatherWind HumidityBarometerVisibility
12:00 PM
Aug 30
88 °FPassing clouds.20 mph11%29.92 "HgN/A
11:30 AM86 °FSunny.20 mph11%29.92 "Hg10 mi
11:00 AM84 °FSunny.17 mph12%29.92 "Hg10 mi
10:30 AM82 °FSunny.15 mph13%29.92 "Hg10 mi
10:00 AM81 °FSunny.13 mph14%29.92 "Hg10 mi
9:30 AM77 °FSunny.10 mph15%29.92 "Hg10 mi
9:00 AM73 °FPassing clouds.10 mph17%29.92 "HgN/A
8:30 AM70 °FPassing clouds.10 mph21%29.92 "HgN/A
8:00 AM66 °FSunny.10 mph22%29.92 "Hg10 mi
7:30 AM63 °FSunny.8 mph25%29.92 "Hg10 mi
7:00 AM61 °FSunny.8 mph27%29.92 "Hg10 mi
6:00 AM61 °FClear.6 mph27%29.92 "Hg10 mi
5:00 AM63 °FClear.10 mph27%29.92 "Hg10 mi
4:00 AM64 °FClear.8 mph24%29.92 "Hg10 mi
3:00 AM63 °FClear.6 mph27%29.92 "Hg10 mi
1:00 AM68 °FClear.8 mph21%29.95 "Hg10 mi
12:00 AM68 °FClear.8 mph24%29.95 "Hg10 mi
11:00 PM
Aug 29
70 °FClear.6 mph23%29.95 "Hg10 mi
10:00 PM77 °FClear.6 mph14%29.95 "Hg10 mi
9:00 PM79 °FClear.8 mph16%29.95 "Hg10 mi
8:00 PM84 °FSunny.8 mph13%29.92 "Hg10 mi
7:30 PM88 °FSunny.8 mph12%29.92 "Hg10 mi
7:00 PM90 °FPassing clouds.8 mph12%29.92 "HgN/A
6:30 PM91 °FSunny.13 mph10%29.92 "Hg10 mi
6:00 PM91 °FPassing clouds.13 mph9%29.95 "HgN/A
5:30 PM93 °FPassing clouds.13 mph8%29.95 "HgN/A
5:00 PM93 °FPassing clouds.13 mph9%29.95 "HgN/A
4:30 PM93 °FPassing clouds.13 mph9%29.95 "HgN/A
4:00 PM93 °FPassing clouds.13 mph10%29.95 "HgN/A
3:30 PM93 °FSunny.13 mph9%29.95 "Hg10 mi
3:00 PM93 °FPassing clouds.10 mph9%29.95 "HgN/A
2:30 PM93 °FPassing clouds.10 mph8%29.98 "HgN/A
2:00 PM91 °FPassing clouds.13 mph9%29.98 "HgN/A
1:30 PM91 °FPassing clouds.10 mph10%29.98 "HgN/A
1:00 PM90 °FPassing clouds.10 mph10%29.98 "HgN/A
Weather by CustomWeather, © 2014

See weather overviewHow to use our weather pages